TimeEST,TemperatureF,Dew PointF,Humidity,Sea Level PressureIn,VisibilityMPH,Wind Direction,Wind SpeedMPH,Gust SpeedMPH,PrecipitationIn,Events,Conditions,WindDirDegrees,DateUTC
12:49 AM,26.6,21.2,80,29.95,5.0,Calm,Calm,-,0.00,Snow,Light Snow,0,2013-02-06 05:49:00
12:54 AM,26.1,21.0,81,29.96,4.0,Calm,Calm,-,0.00,Snow,Light Snow,0,2013-02-06 05:54:00
1:00 AM,24.8,21.2,86,29.95,1.8,Calm,Calm,-,0.00,Snow,Light Snow,0,2013-02-06 06:00:00
1:15 AM,24.8,21.2,86,29.95,2.5,Calm,Calm,-,0.00,Snow,Light Snow,0,2013-02-06 06:15:00
1:23 AM,24.8,21.2,86,29.95,2.0,WNW,3.5,-,0.00,Snow,Light Snow,300,2013-02-06 06:23:00
1:54 AM,24.8,21.2,86,29.96,3.0,Calm,Calm,-,N/A,Snow,Light Snow,0,2013-02-06 06:54:00
2:08 AM,24.8,21.2,86,29.95,2.5,Calm,Calm,-,0.00,Snow,Light Snow,0,2013-02-06 07:08:00
2:18 AM,26.6,21.2,80,29.95,1.5,Calm,Calm,-,0.01,Snow,Light Snow,0,2013-02-06 07:18:00
2:29 AM,24.8,21.2,86,29.95,3.0,Calm,Calm,-,0.01,Snow,Light Snow,0,2013-02-06 07:29:00
2:54 AM,25.0,21.0,85,29.95,5.0,Calm,Calm,-,0.01,Snow,Light Snow,0,2013-02-06 07:54:00
3:54 AM,25.0,21.0,85,29.94,3.0,Calm,Calm,-,0.00,Snow,Light Snow,0,2013-02-06 08:54:00
4:05 AM,24.8,21.2,86,29.94,4.0,Calm,Calm,-,0.00,Snow,Light Snow,0,2013-02-06 09:05:00
4:26 AM,21.2,19.4,93,29.94,6.0,Calm,Calm,-,0.00,,Overcast,0,2013-02-06 09:26:00
4:33 AM,21.2,19.4,93,29.94,6.0,Calm,Calm,-,0.00,,Overcast,0,2013-02-06 09:33:00
4:40 AM,24.8,19.4,80,29.95,6.0,Calm,Calm,-,0.00,,Overcast,0,2013-02-06 09:40:00
4:50 AM,24.8,21.2,86,29.94,7.0,Calm,Calm,-,0.00,,Overcast,0,2013-02-06 09:50:00
4:54 AM,24.1,19.9,84,29.95,7.0,North,3.5,-,0.00,,Overcast,360,2013-02-06 09:54:00
5:07 AM,24.8,19.4,80,29.95,8.0,Calm,Calm,-,N/A,,Overcast,0,2013-02-06 10:07:00
5:54 AM,24.1,19.9,84,29.96,7.0,Calm,Calm,-,N/A,,Overcast,0,2013-02-06 10:54:00
6:26 AM,24.8,19.4,80,29.97,7.0,Calm,Calm,-,N/A,,Overcast,0,2013-02-06 11:26:00
6:54 AM,24.8,19.4,80,29.98,7.0,Calm,Calm,-,N/A,,Overcast,0,2013-02-06 11:54:00
7:23 AM,21.2,19.4,93,29.99,5.0,Calm,Calm,-,N/A,,Mostly Cloudy,0,2013-02-06 12:23:00
7:54 AM,26.1,21.0,81,30.00,6.0,Calm,Calm,-,N/A,,Haze,0,2013-02-06 12:54:00
8:54 AM,28.0,21.9,78,30.01,8.0,WSW,4.6,-,N/A,,Mostly Cloudy,240,2013-02-06 13:54:00
9:54 AM,30.2,23.0,75,30.00,9.0,SW,6.9,-,N/A,,Overcast,230,2013-02-06 14:54:00
10:54 AM,33.1,24.1,70,30.00,10.0,WSW,4.6,-,N/A,,Partly Cloudy,240,2013-02-06 15:54:00
11:54 AM,37.0,23.0,57,30.00,10.0,West,10.4,16.1,N/A,,Scattered Clouds,260,2013-02-06 16:54:00
12:54 PM,37.9,19.0,47,29.98,10.0,West,13.8,20.7,N/A,,Mostly Cloudy,270,2013-02-06 17:54:00
1:54 PM,37.0,17.1,44,30.00,10.0,West,13.8,24.2,N/A,,Overcast,280,2013-02-06 18:54:00
2:54 PM,37.0,18.0,46,30.01,10.0,WNW,10.4,-,N/A,,Overcast,290,2013-02-06 19:54:00
3:54 PM,37.0,16.0,42,30.03,10.0,West,11.5,16.1,N/A,,Partly Cloudy,270,2013-02-06 20:54:00
4:54 PM,36.0,12.9,39,30.06,10.0,West,6.9,-,N/A,,Clear,270,2013-02-06 21:54:00
5:54 PM,33.1,12.0,42,30.10,10.0,West,3.5,-,N/A,,Clear,260,2013-02-06 22:54:00
6:54 PM,33.1,12.9,43,30.14,10.0,West,9.2,-,N/A,,Clear,270,2013-02-06 23:54:00
7:54 PM,30.9,10.0,42,30.18,10.0,West,12.7,18.4,N/A,,Clear,270,2013-02-07 00:54:00
8:54 PM,30.0,7.0,38,30.22,10.0,WNW,6.9,-,N/A,,Clear,300,2013-02-07 01:54:00
9:54 PM,28.9,7.0,40,30.25,10.0,North,4.6,-,N/A,,Clear,350,2013-02-07 02:54:00
10:54 PM,27.0,8.1,45,30.29,10.0,NW,8.1,-,N/A,,Clear,320,2013-02-07 03:54:00
11:54 PM,25.0,1.9,37,30.31,10.0,NNW,11.5,-,N/A,,Clear,340,2013-02-07 04:54:00